Tok, AK

2:35 AM AKST on February 27, 2017 (GMT -0900)
Eagle

Weather History for PAEG - January, 2013

Change the Weather History Date:

Friday, January 4, 2013

  Actual Average (PABN) Record (PABN)
Temperature  
Mean Temperature 7 °F -  
Max Temperature 16 °F 0 °F 39 °F (1997)
Min Temperature -2 °F -5 °F -32 °F (2000)
Degree Days  
Heating Degree Days 58    
Moisture  
Dew Point 1 °F    
Average Humidity 71    
Maximum Humidity 83    
Minimum Humidity 62    
Precipitation  
Precipitation 0.00 in - - ()
Sea Level Pressure  
Sea Level Pressure 29.92 in    
Wind  
Wind Speed 4 mph (ESE)    
Max Wind Speed 12 mph    
Max Gust Speed 24 mph    
Visibility 10 miles    
Events      
Averages and records for this station are not official NWS values.
T = Trace of Precipitation, MM = Missing Value Source: NWS Daily Summary

Daily Weather History Graph

Daily Weather History Graph

Search for Another Location

Airport or City:

Trip Planner

Search our weather history database for the weather conditions in past years. The results will help you decide how hot, cold, wet, or windy it might be!

Date:

Astronomy

Jan. 04, 2013 Rise Set
Actual Time 10:21 AM AKST 2:38 PM AKST
Civil Twilight 9:02 AM AKST 3:57 PM AKST
Nautical Twilight 7:53 AM AKST 5:06 PM AKST
Astronomical Twilight 6:52 AM AKST 6:07 PM AKST
Moon 12:27 AM AKST (1/4) 10:53 AM AKST (1/4)
Length of Visible Light 6h 54m
Length of Day
4h 16m
Waning Gibbous, 53% of the Moon is Illuminated
Jan 4
Waning Gibbous
Jan 4
Last Quarter
Jan 11
New
Jan 18
First Quarter
Jan 26
Full

Hourly Weather History & Observations

Time (AKST) Temp. Windchill Dew Point Humidity Pressure Visibility Wind Dir Wind Speed Gust Speed Precip Events Conditions
12:53 AM 1.0 °F - -6.0 °F 72% 29.87 in 10.0 mi Calm Calm - N/A   Clear
1:53 AM 1.0 °F - -5.1 °F 75% 29.86 in 10.0 mi Calm Calm - N/A   Clear
3:53 AM 1.0 °F - -4.0 °F 79% 29.85 in 10.0 mi Calm Calm - N/A   Clear
4:53 AM 1.9 °F - -4.0 °F 76% 29.85 in 10.0 mi Calm Calm - N/A   Clear
5:53 AM 1.0 °F - -5.1 °F 75% 29.85 in 10.0 mi Calm Calm - N/A   Clear
6:53 AM -2.0 °F - -6.0 °F 83% 29.86 in 10.0 mi Calm Calm - N/A   Clear
7:53 AM 1.9 °F -5.6 °F -5.1 °F 72% 29.86 in 10.0 mi SE 3.5 mph - N/A   Clear
8:53 AM 3.0 °F -6.4 °F -2.9 °F 76% 29.87 in 10.0 mi East 4.6 mph - N/A   Overcast
9:53 AM 3.9 °F - -2.0 °F 76% 29.88 in 10.0 mi Calm Calm - N/A   Overcast
10:53 AM 7.0 °F -4.5 °F 1.0 °F 77% 29.89 in 10.0 mi East 6.9 mph - N/A   Mostly Cloudy
11:53 AM 7.0 °F -3.3 °F 1.0 °F 77% 29.91 in 10.0 mi Variable 5.8 mph - N/A   Overcast
12:53 PM 12.9 °F 1.6 °F 6.1 °F 74% 29.91 in 10.0 mi East 8.1 mph 17.3 mph N/A   Overcast
1:53 PM 12.9 °F 0.7 °F 5.0 °F 71% 29.92 in 10.0 mi ESE 9.2 mph 18.4 mph N/A   Overcast
2:53 PM 14.0 °F 2.0 °F 6.1 °F 71% 29.93 in 10.0 mi ESE 9.2 mph 24.2 mph N/A   Overcast
3:53 PM 14.0 °F 2.9 °F 5.0 °F 67% 29.94 in 10.0 mi ESE 8.1 mph 18.4 mph N/A   Scattered Clouds
4:53 PM 15.1 °F 4.2 °F 5.0 °F 64% 29.95 in 10.0 mi ESE 8.1 mph - N/A   Mostly Cloudy
5:53 PM 16.0 °F 2.9 °F 5.0 °F 62% 29.97 in 10.0 mi SE 11.5 mph 20.7 mph N/A   Overcast
6:53 PM 15.1 °F 4.2 °F 5.0 °F 64% 29.99 in 10.0 mi SE 8.1 mph 18.4 mph N/A   Overcast
7:53 PM 15.1 °F 4.2 °F 5.0 °F 64% 29.98 in 10.0 mi SE 8.1 mph 19.6 mph N/A   Overcast
8:53 PM 14.0 °F 2.0 °F 5.0 °F 67% 29.98 in 10.0 mi SE 9.2 mph 19.6 mph N/A   Clear
9:53 PM 15.1 °F 1.8 °F 5.0 °F 64% 29.99 in 10.0 mi SE 11.5 mph 18.4 mph N/A   Clear
10:53 PM 14.0 °F 1.2 °F 3.9 °F 64% 30.01 in 10.0 mi SE 10.4 mph - N/A   Clear
11:53 PM 14.0 °F 1.2 °F 3.9 °F 64% 30.01 in 10.0 mi SE 10.4 mph 23.0 mph N/A   Clear